CAPE
0 0 nan 0 0 2 1 1 2 2 3 2 6 6 2 1 nan nan 2 1 1 0 0 0 0 0 1 9 10 10 10 8 6 6 3 1 nan nan nan nan nan nan nan nan nan nan nan nan nan nan nan nan nan nan nan nan nan nan 22 30 30 nan nan 1 1 2 3 3 2 2 1 1 1 1 19 18 3 3 1 5 5 6 4 1 1 nan
nan nan nan nan nan 1 1 nan 2 2 3 2 4 4 3 nan nan nan nan 0 0 0 0 0 0 0 nan 6 12 12 10 9 7 7 4 2 0 0 nan nan nan nan nan nan nan nan nan nan nan nan nan nan nan nan nan nan nan nan 3 nan nan nan nan 2 2 5 6 5 5 5 4 5 12 12 2 nan 1 1 5 4 4 4 2 0 0 0
1 nan nan nan nan 0 1 nan 1 1 1 2 2 2 2 nan nan nan nan nan nan nan 0 0 0 0 nan 3 15 15 12 10 9 9 6 3 1 1 nan nan nan nan nan nan nan nan nan nan nan nan nan nan nan nan nan nan nan nan nan nan nan nan nan 2 2 6 8 9 10 10 9 0 0 0 1 4 3 3 4 3 3 2 1 1 1 1
3 2 nan nan nan nan 2 1 1 1 1 1 nan nan 1 nan nan nan nan nan nan nan nan 0 0 0 nan 2 12 12 13 12 11 11 8 6 3 3 2 nan nan nan nan nan nan nan nan nan nan nan nan nan nan nan nan nan nan nan nan nan nan nan nan 1 1 4 6 3 10 10 4 2 3 3 4 3 4 4 4 3 3 2 2 2 2 3
2 2 1 0 0 nan 0 1 0 0 1 0 nan nan 0 0 nan nan nan nan nan nan nan nan nan nan 0 1 10 10 15 14 12 12 10 8 5 5 3 2 2 nan nan nan nan nan nan nan nan nan nan nan nan nan nan nan nan nan nan nan nan nan nan nan nan nan nan nan 0 0 3 3 2 2 2 2 3 3 3 3 3 2 3 4 4 5
2 2 1 0 0 0 nan 0 0 0 nan nan nan nan nan 1 nan nan nan nan nan nan nan nan nan nan nan 1 10 10 14 13 12 12 11 9 7 7 4 3 3 1 0 nan nan nan nan nan nan nan nan nan nan nan nan nan nan nan nan nan nan nan nan nan nan nan nan 0 1 1 1 0 0 0 1 1 2 2 3 3 3 4 5 6 6 6
1 1 1 0 0 0 nan 0 1 1 nan nan nan nan nan 0 nan nan nan nan nan nan nan nan nan nan nan 3 10 10 12 10 11 11 10 10 9 9 6 4 4 2 1 0 0 nan nan nan nan nan nan nan nan nan nan nan nan nan nan nan nan nan nan nan nan nan 0 nan nan nan nan 0 0 0 1 1 1 1 2 4 4 6 7 8 8 7
1 0 0 1 1 nan nan nan nan nan nan 0 0 0 nan nan nan nan nan nan nan nan nan nan nan nan nan nan 0 0 1 0 1 1 3 5 9 9 9 8 8 6 2 1 1 1 0 nan nan nan nan nan nan nan nan nan nan nan nan nan nan nan nan nan nan nan nan nan nan nan nan nan nan nan 0 0 0 0 1 1 1 2 4 3 3 1
1 1 0 1 1 1 0 nan nan nan nan nan 0 0 0 nan nan nan nan nan nan nan nan nan nan nan nan nan nan nan 2 4 2 2 3 0 2 2 6 8 8 9 4 2 2 1 2 0 0 nan nan nan nan nan nan nan nan nan nan nan nan nan nan nan nan nan nan nan nan nan nan nan nan nan nan nan nan nan nan nan nan nan 0 0 0 nan
0 0 0 0 0 0 0 nan nan nan nan nan nan nan nan 0 nan nan nan nan nan nan nan nan nan nan nan nan nan nan nan 2 11 11 13 1 11 11 3 2 2 4 4 3 3 1 1 1 1 0 nan nan nan nan nan nan nan nan nan nan nan nan nan nan nan nan nan nan nan nan nan nan nan nan nan nan nan nan nan nan nan nan nan nan nan nan
0 0 0 0 0 nan nan 0 nan nan nan nan nan nan nan nan 0 0 nan 0 0 nan nan nan nan nan nan nan nan nan nan nan nan nan 2 0 0 0 0 0 0 0 2 2 2 2 1 0 0 nan nan nan nan nan nan nan nan nan nan nan nan nan nan nan nan nan 0 0 0 0 0 0 nan nan nan nan nan nan nan nan nan nan nan nan nan nan
0 0 0 0 0 nan nan nan nan nan nan nan nan nan nan nan nan nan 0 0 0 0 nan nan nan nan nan nan nan nan nan nan nan nan nan nan nan nan nan nan nan nan 0 1 1 1 1 0 0 nan nan nan nan nan nan nan nan nan nan nan nan nan nan nan nan nan 0 1 2 2 1 1 0 0 0 nan nan nan nan nan nan nan nan nan nan nan
0 0 0 0 0 nan 0 nan nan nan 0 3 2 2 1 nan nan nan nan nan nan nan nan nan nan nan nan nan nan nan nan nan nan nan nan nan nan nan nan nan nan nan nan nan nan nan 2 1 1 nan nan nan nan nan nan nan nan nan nan nan nan nan nan nan nan 0 0 2 1 1 1 1 1 1 0 0 nan nan nan nan nan nan nan nan nan nan
nan 0 nan nan nan nan nan nan 0 0 2 3 4 4 2 nan nan nan nan nan nan nan nan nan nan nan nan nan nan nan nan nan nan nan nan nan nan nan nan nan nan nan nan nan nan nan 2 0 0 nan 0 0 0 0 nan nan nan nan nan nan nan nan nan nan nan nan 0 2 1 1 2 1 1 1 1 0 nan nan nan nan nan nan nan nan nan nan
nan nan nan nan nan nan 0 0 nan nan 1 4 3 3 0 nan nan nan nan nan nan nan nan nan nan nan nan nan nan nan nan nan nan nan nan nan nan nan nan nan nan nan nan nan nan nan 1 0 0 nan 0 1 1 1 0 2 2 1 0 0 0 0 0 0 0 1 1 1 2 2 2 2 2 2 1 1 0 0 0 0 0 nan nan nan nan nan
0 0 nan nan nan nan 0 nan nan nan 1 4 2 2 1 nan nan nan nan nan nan nan nan nan nan nan nan nan nan nan nan nan nan nan nan nan nan nan nan nan nan nan nan nan nan nan nan nan nan nan 0 1 2 2 1 4 4 3 3 2 2 2 2 3 3 3 3 4 3 3 4 3 3 3 3 2 2 2 1 1 1 0 0 0 0 0
1 0 nan nan nan 0 0 nan nan nan 0 2 2 2 0 nan nan nan nan nan nan nan nan nan nan nan nan nan nan nan nan nan nan nan nan nan nan nan nan nan nan nan nan nan nan nan nan nan nan nan 1 4 3 3 4 6 6 6 5 4 4 4 3 3 3 3 3 3 4 4 4 4 4 4 4 4 4 4 3 2 2 1 1 1 1 1
0 0 nan nan nan nan 0 nan nan nan nan 1 1 1 0 nan nan nan nan nan nan nan nan nan nan nan nan nan nan nan nan nan nan nan nan nan nan nan nan nan nan nan nan nan nan nan nan nan nan nan 1 5 4 4 5 6 6 8 8 7 7 5 4 4 4 4 4 4 5 5 5 5 5 5 5 5 6 6 5 4 4 3 1 0 0 nan
1 2 1 0 0 0 0 nan nan nan nan nan nan nan nan nan nan nan nan nan nan nan nan nan nan nan nan nan nan nan nan nan nan nan nan nan nan nan nan nan nan nan nan nan nan nan nan nan nan 4 8 7 6 6 6 6 6 7 7 7 7 7 6 5 5 6 6 6 8 8 8 8 7 7 7 7 8 8 8 6 6 5 3 1 1 0
1 3 3 3 3 0 nan 0 0 0 nan nan nan nan nan nan nan nan nan nan nan nan nan nan nan nan nan nan nan nan nan nan nan nan nan nan nan nan nan nan nan nan nan nan nan nan nan nan nan 1 5 7 9 9 7 7 7 7 6 6 6 5 5 6 6 7 7 7 9 9 9 9 8 8 7 7 7 7 7 6 6 5 5 3 3 2
2 2 4 4 4 1 0 nan nan nan 1 nan nan nan nan nan nan nan nan nan nan nan nan nan nan nan nan nan nan nan nan nan nan nan nan nan nan nan nan nan nan nan nan nan nan nan nan nan nan nan 7 11 11 11 9 8 8 7 6 6 6 5 5 6 6 6 7 8 8 8 8 8 7 7 6 4 4 4 4 5 5 5 5 5 5 4
1 1 3 3 3 1 2 nan 0 0 1 nan nan nan nan nan nan nan nan nan nan nan nan nan nan nan nan nan nan nan nan nan nan nan nan nan nan nan nan nan nan nan nan nan nan nan nan nan nan nan 13 14 12 12 11 9 9 7 7 6 6 5 5 4 4 6 6 7 7 7 8 8 7 7 6 4 5 5 5 5 5 5 6 6 6 6
1 1 1 1 1 1 0 nan nan nan 0 0 nan nan nan nan nan nan nan nan nan nan nan nan nan nan nan nan nan nan nan nan nan nan nan nan nan nan nan nan nan nan nan nan nan nan nan nan nan nan 5 14 11 11 11 11 11 9 8 6 6 6 5 5 5 5 6 7 7 7 7 7 8 8 6 5 6 6 6 6 6 6 6 6 6 5
nan 0 1 1 1 1 0 nan nan nan nan nan nan nan nan nan nan nan nan nan nan nan nan nan nan nan nan nan nan nan nan nan nan nan nan nan nan nan nan nan nan nan nan nan nan nan nan nan nan nan 0 7 8 8 8 10 10 11 10 10 10 9 8 8 8 6 7 6 7 7 6 8 8 8 6 6 6 6 6 5 5 5 5 5 5 4
0 1 2 4 4 6 1 nan nan nan nan nan nan nan nan nan nan nan nan nan nan nan nan nan nan nan nan nan nan nan nan nan nan nan nan nan nan nan nan nan nan nan nan nan nan nan nan nan nan nan nan 1 6 6 7 8 8 10 12 12 12 10 10 10 10 8 8 7 7 7 7 7 7 7 7 5 5 5 5 5 5 4 4 4 4 5
7 7 6 9 9 14 12 10 6 6 0 nan nan nan nan nan nan nan nan nan nan nan nan nan nan nan nan nan nan nan nan nan nan nan nan nan nan nan nan nan nan nan nan nan nan nan nan nan nan nan nan nan 8 8 5 6 6 8 10 11 11 10 12 11 11 10 8 7 7 7 7 6 7 7 5 4 3 3 4 5 5 5 4 3 3 5
14 12 13 13 13 12 11 10 8 8 5 3 nan nan nan nan nan nan nan nan nan nan nan nan nan nan nan nan nan nan nan nan nan nan nan nan nan nan nan nan nan nan nan nan nan nan nan nan nan nan nan nan 0 0 3 4 4 5 9 9 9 10 12 12 12 11 9 7 7 7 7 6 6 6 4 3 2 2 2 4 4 3 2 1 1 5
12 10 10 10 10 9 9 9 9 9 6 4 3 3 nan nan nan nan nan nan nan nan nan nan nan nan nan nan nan nan nan nan nan nan nan nan nan nan nan nan nan nan nan nan nan nan nan nan nan nan nan nan nan nan nan nan nan 0 3 4 4 6 7 9 9 9 8 7 7 7 6 6 5 5 4 4 2 2 2 1 1 0 nan nan nan nan
10 9 8 8 8 8 8 8 8 8 7 6 4 4 nan nan nan nan nan nan nan nan nan nan nan nan nan nan nan nan nan nan nan nan nan nan nan nan nan nan nan nan nan nan nan nan nan nan nan nan nan nan nan nan nan nan nan nan nan 0 0 1 2 4 4 5 6 6 5 5 5 5 5 5 5 5 5 5 3 2 2 0 nan nan nan nan
4 7 5 6 6 7 6 3 7 7 8 7 5 5 1 nan nan nan nan nan nan nan nan nan nan nan nan nan nan nan nan nan nan nan nan nan nan nan nan nan nan nan nan nan nan nan nan nan nan nan nan nan nan nan nan nan nan nan nan nan nan nan 0 1 1 2 3 5 6 6 5 5 5 5 5 5 5 5 4 3 3 nan nan nan nan nan
1 2 1 2 2 3 2 0 3 3 8 8 6 6 2 nan nan nan nan nan nan nan nan nan nan nan nan nan nan nan nan nan nan nan nan nan nan nan nan nan nan nan nan nan nan nan nan nan nan nan nan nan nan nan nan nan nan nan nan nan nan nan nan nan nan 0 2 3 4 4 5 4 4 4 4 5 5 5 3 3 3 nan nan nan nan nan
nan 1 1 1 1 0 nan nan nan nan nan nan nan nan 2 0 nan nan nan nan nan nan nan nan nan nan nan nan nan nan nan nan 3 3 nan nan nan nan nan nan nan nan nan nan nan nan nan nan nan nan nan nan nan nan nan nan nan nan nan nan nan nan nan nan nan nan nan nan 0 0 1 2 3 3 4 4 5 5 4 4 4 0 nan nan nan nan
nan nan 0 0 0 nan nan nan nan nan nan nan nan nan nan nan 0 0 nan nan nan nan nan nan nan nan nan nan nan nan nan nan 4 4 nan nan nan nan nan nan nan nan nan nan nan nan nan nan nan nan nan nan nan nan nan nan nan nan nan nan nan nan nan nan nan nan nan nan nan nan nan nan 1 1 2 4 5 5 3 2 2 1 nan nan nan nan
nan nan nan nan nan nan nan nan nan nan nan nan nan nan nan nan nan nan nan nan nan nan nan nan nan nan nan nan nan nan nan nan 3 3 nan nan nan nan nan nan nan nan nan nan nan nan nan nan nan nan nan nan nan nan nan nan nan nan nan nan nan nan nan nan nan nan nan nan nan nan nan nan nan nan nan 3 5 5 4 3 3 1 0 nan nan nan
nan nan nan 0 0 0 nan nan nan nan nan nan nan nan nan nan nan nan nan nan nan nan nan nan nan nan nan nan nan nan nan nan 1 1 0 nan nan nan nan nan nan nan nan nan nan nan nan nan nan nan nan nan nan nan nan nan nan nan nan nan nan nan nan nan nan nan nan nan nan nan nan nan nan nan nan 0 3 3 4 3 3 2 1 1 1 nan
nan nan nan 0 0 1 0 nan nan nan nan nan nan nan nan nan nan nan nan nan nan nan nan nan nan nan nan nan nan nan nan nan nan nan nan nan nan nan nan nan nan nan nan nan nan nan nan nan nan nan nan nan nan nan nan nan nan nan nan nan nan nan nan nan nan nan nan nan nan nan nan nan nan nan nan nan 0 0 1 2 2 2 2 1 1 0
nan nan nan 0 0 0 0 nan nan nan nan nan nan nan nan nan nan nan nan nan nan nan nan nan nan nan nan nan nan nan nan nan nan nan nan nan nan nan nan nan nan nan nan nan nan nan nan nan nan nan nan nan nan nan nan nan nan nan nan nan nan nan nan nan nan nan nan nan nan nan nan nan nan nan nan nan nan nan nan nan nan 0 0 3 3 2
nan nan nan 0 0 0 nan nan nan nan nan nan nan nan nan nan nan nan nan nan nan nan nan nan nan nan nan 1 nan nan nan nan nan nan nan nan nan nan nan nan nan nan nan nan nan nan nan nan nan nan nan nan nan nan nan nan nan nan nan nan nan nan nan nan nan nan nan nan nan nan nan nan nan nan nan nan nan nan nan nan nan nan nan nan nan 3
nan nan nan nan nan nan nan nan nan nan nan nan nan nan nan nan nan nan nan nan nan nan nan nan nan nan nan nan 0 0 nan nan nan nan nan nan nan nan nan nan nan nan nan nan nan nan nan nan nan nan nan nan nan nan nan nan nan nan nan nan nan nan nan nan nan nan nan nan nan nan nan nan nan nan nan nan nan nan nan nan nan nan nan nan nan nan
nan nan nan 0 0 nan nan nan nan nan nan nan nan nan nan nan nan nan nan nan nan nan nan nan nan nan nan nan nan nan nan nan nan nan nan nan nan nan nan nan nan nan nan nan nan nan nan nan nan nan nan nan nan nan nan nan nan nan nan nan nan nan nan nan nan nan nan nan nan nan nan nan nan nan nan nan nan nan nan nan nan nan nan nan nan nan
nan nan nan nan nan nan nan nan nan nan nan nan nan nan nan nan nan nan nan nan nan nan nan nan nan nan nan nan nan nan nan nan nan nan nan nan nan nan nan nan nan nan nan nan nan nan nan nan nan nan nan nan nan nan nan nan nan nan nan nan nan nan nan nan nan nan nan nan nan nan nan nan nan nan nan nan nan nan nan nan nan nan nan nan nan nan
1 1 nan nan nan nan nan nan nan nan nan nan nan nan nan nan nan nan nan nan nan nan nan nan nan nan nan nan nan nan nan nan nan nan nan nan nan nan nan nan nan nan nan nan nan nan nan nan nan nan nan nan nan nan nan nan nan nan nan nan nan nan nan nan nan nan nan nan nan nan nan nan nan nan nan nan nan nan nan nan nan nan nan nan nan nan
3 1 nan nan nan nan nan nan nan nan nan nan nan nan nan nan nan nan nan nan nan nan nan nan nan nan nan nan nan nan nan nan nan nan nan nan nan nan nan nan nan nan nan nan nan nan nan nan nan nan nan nan nan nan nan nan nan nan nan nan nan nan nan nan nan nan nan nan nan nan nan nan nan nan nan nan nan nan nan nan nan 0 2 nan nan nan
1 nan nan nan nan nan nan nan nan nan nan nan nan nan nan nan nan nan nan nan nan nan nan nan nan nan nan nan nan nan nan nan nan nan nan nan nan nan nan nan nan nan nan nan nan nan nan nan nan nan nan nan nan nan nan nan nan nan nan nan nan nan nan nan nan nan nan nan nan nan nan nan nan nan nan nan nan nan nan nan nan nan nan nan nan nan
nan nan nan nan nan nan nan nan nan nan nan nan nan nan nan nan nan nan nan nan nan nan nan nan nan nan nan nan nan nan nan nan nan nan nan 0 4 4 nan nan nan nan nan nan nan nan nan nan nan nan nan nan nan nan nan nan nan nan nan nan nan nan nan nan nan nan nan nan nan nan nan nan nan nan nan nan nan nan nan nan nan nan nan nan nan nan
nan nan nan nan nan nan 0 nan nan nan nan nan nan nan nan nan nan nan nan nan nan nan nan nan nan nan nan nan nan nan nan nan nan nan nan nan nan nan nan nan nan nan nan nan nan nan nan nan nan nan nan nan nan nan nan nan nan nan nan nan nan nan nan nan nan nan nan nan nan nan nan nan nan nan nan nan nan nan nan nan nan nan nan nan nan nan
nan nan nan nan nan nan nan 0 nan nan nan 0 nan nan nan nan nan nan nan nan nan nan nan nan nan nan nan nan nan nan nan nan nan nan nan nan nan nan nan nan nan nan nan nan nan nan nan nan nan nan nan nan nan nan nan nan nan nan nan nan nan nan nan nan nan nan nan nan nan nan nan nan nan nan nan nan nan nan nan nan nan nan nan nan nan nan
0 nan nan nan nan nan nan nan nan nan nan 0 nan nan nan nan nan nan nan nan nan nan nan nan nan nan nan nan nan nan nan nan nan nan nan nan nan nan nan nan nan nan nan nan nan nan nan nan nan nan nan nan nan nan nan nan nan nan nan nan nan nan nan nan nan nan nan nan nan nan nan nan nan nan nan nan nan nan nan nan nan nan nan nan nan nan
nan nan nan nan nan nan nan nan nan nan nan nan nan nan nan nan 2 2 nan nan nan nan nan nan nan nan nan nan nan nan nan nan nan nan nan nan nan nan nan nan nan nan nan nan nan nan nan nan nan nan nan nan nan nan nan nan nan nan nan nan nan nan nan nan nan nan nan nan nan nan nan nan nan nan nan nan nan nan nan nan nan nan nan nan nan nan
nan nan nan nan nan nan nan nan nan nan nan nan 1 1 nan nan nan nan nan nan nan nan nan nan nan nan nan nan nan nan nan nan nan nan nan nan nan nan nan nan nan nan nan nan nan nan nan nan nan nan nan nan nan nan nan nan nan nan nan nan nan nan nan nan nan nan nan nan nan nan nan nan nan nan nan nan nan nan nan nan nan nan nan nan nan nan
nan nan nan nan nan nan nan nan nan nan nan 0 0 0 0 nan nan nan nan nan nan nan nan nan nan nan nan nan nan nan nan nan nan nan nan nan nan nan nan nan nan nan nan nan nan nan nan nan nan nan nan 1 nan nan nan nan nan nan nan nan nan nan nan nan nan nan nan nan nan nan nan nan nan nan nan nan nan nan nan nan nan nan nan nan nan nan
CIN
-27 -22 nan -23 -23 -10 -10 -14 -7 -7 -5 -8 -6 -6 -8 -7 nan nan -3 -3 -3 -3 -3 -2 -2 -3 -1 -0 -0 -0 -0 -0 -0 -0 -0 -0 nan nan nan nan nan nan nan nan nan nan nan nan nan nan nan nan nan nan nan nan nan nan -103 -58 -58 nan nan -1 -1 -1 -0 -0 -0 -0 -0 -0 -0 -0 -0 -2 -2 -2 -0 -0 -0 -0 -0 -0 -0 nan
nan nan nan nan nan -11 -9 nan -8 -8 -4 -6 -5 -5 -5 nan nan nan nan -4 -4 -4 -3 -2 -2 -3 nan -0 -0 -0 -0 -0 -0 -0 -0 -0 -0 -0 nan nan nan nan nan nan nan nan nan nan nan nan nan nan nan nan nan nan nan nan -135 nan nan nan nan -1 -1 -0 -0 -0 -0 -0 -0 -0 -1 -1 -2 nan -0 -0 -0 -0 -0 -0 -0 -0 -0 -0
-18 nan nan nan nan -11 -7 nan -10 -10 -7 -7 -6 -6 -6 nan nan nan nan nan nan nan -4 -3 -3 -2 nan -1 -0 -0 -0 -0 -0 -0 -0 -0 -0 -0 nan nan nan nan nan nan nan nan nan nan nan nan nan nan nan nan nan nan nan nan nan nan nan nan nan -1 -1 -0 -0 -0 -0 -0 -0 -4 -0 -0 -0 -0 -0 -0 -0 -0 -0 -0 -0 -0 -0 -0
-13 -9 nan nan nan nan -7 -9 -9 -9 -9 -9 nan nan -7 nan nan nan nan nan nan nan nan -3 -3 -2 nan -1 -0 -0 -0 -0 -0 -0 -0 -0 -0 -0 -0 nan nan nan nan nan nan nan nan nan nan nan nan nan nan nan nan nan nan nan nan nan nan nan nan -1 -1 -0 -0 -1 -2 -2 -0 -0 -0 -0 -0 -0 -0 -0 -0 -0 -0 -0 -0 -0 -0 -0
-13 -9 -8 -9 -9 nan -13 -13 -12 -12 -10 -11 nan nan -9 -8 nan nan nan nan nan nan nan nan nan nan -2 -2 -0 -0 -0 -0 -0 -0 -0 -0 -0 -0 -0 -0 -0 nan nan nan nan nan nan nan nan nan nan nan nan nan nan nan nan nan nan nan nan nan nan nan nan nan nan nan -0 -0 -0 -0 -0 -0 -0 -0 -0 -0 -0 -0 -0 -0 -0 -0 -0 -0
-8 -11 -9 -7 -7 -6 nan -13 -15 -15 nan nan nan nan nan -12 nan nan nan nan nan nan nan nan nan nan nan -2 -0 -0 -0 -0 -0 -0 -0 -0 -0 -0 -0 -0 -0 -0 -0 nan nan nan nan nan nan nan nan nan nan nan nan nan nan nan nan nan nan nan nan nan nan nan nan -0 -0 -0 -0 -0 -1 -1 -0 -0 -0 -0 -0 -0 -0 -0 -0 -0 -0 -0
-6 -15 -13 -10 -10 -8 nan -10 -9 -9 nan nan nan nan nan -15 nan nan nan nan nan nan nan nan nan nan nan -1 -0 -0 -0 -0 -0 -0 -0 -0 -0 -0 -0 -0 -0 -0 -0 -0 -0 nan nan nan nan nan nan nan nan nan nan nan nan nan nan nan nan nan nan nan nan nan -0 nan nan nan nan -0 -0 -0 -0 -0 -0 -0 -0 -0 -0 -0 -0 -0 -0 -0
-2 -9 -11 -7 -7 nan nan nan nan nan nan -7 -5 -5 nan nan nan nan nan nan nan nan nan nan nan nan nan nan -4 -4 -3 -3 -2 -2 -1 -0 -0 -0 -0 -0 -0 -0 -0 -0 -0 -0 -0 nan nan nan nan nan nan nan nan nan nan nan nan nan nan nan nan nan nan nan nan nan nan nan nan nan nan nan -1 -1 -1 -1 -0 -0 -0 -0 -0 -0 -0 -0
-4 -3 -6 -8 -8 -4 -4 nan nan nan nan nan -6 -6 -4 nan nan nan nan nan nan nan nan nan nan nan nan nan nan nan -2 -1 -2 -2 -1 -3 -2 -2 -0 -0 -0 -0 -0 -0 -0 -0 -0 -0 -0 nan nan nan nan nan nan nan nan nan nan nan nan nan nan nan nan nan nan nan nan nan nan nan nan nan nan nan nan nan nan nan nan nan -0 -0 -0 nan
-8 -4 -4 -8 -8 -8 -4 nan nan nan nan nan nan nan nan -3 nan nan nan nan nan nan nan nan nan nan nan nan nan nan nan -1 -0 -0 -0 -2 -0 -0 -1 -1 -1 -0 -0 -0 -0 -0 -0 -0 -0 -0 nan nan nan nan nan nan nan nan nan nan nan nan nan nan nan nan nan nan nan nan nan nan nan nan nan nan nan nan nan nan nan nan nan nan nan nan
-6 -7 -6 -6 -6 nan nan -6 nan nan nan nan nan nan nan nan -3 -3 nan -3 -3 nan nan nan nan nan nan nan nan nan nan nan nan nan -0 -1 -3 -3 -3 -3 -3 -2 -0 -0 -0 -0 -0 -0 -0 nan nan nan nan nan nan nan nan nan nan nan nan nan nan nan nan nan -0 -0 -0 -0 -0 -0 nan nan nan nan nan nan nan nan nan nan nan nan nan nan
-5 -6 -7 -6 -6 nan nan nan nan nan nan nan nan nan nan nan nan nan -3 -2 -2 -2 nan nan nan nan nan nan nan nan nan nan nan nan nan nan nan nan nan nan nan nan -4 -1 -1 -0 -0 -0 -0 nan nan nan nan nan nan nan nan nan nan nan nan nan nan nan nan nan -0 -0 -0 -0 -0 -0 -0 -0 -1 nan nan nan nan nan nan nan nan nan nan nan
-6 -7 -6 -6 -6 nan -4 nan nan nan -5 -2 -1 -1 -1 nan nan nan nan nan nan nan nan nan nan nan nan nan nan nan nan nan nan nan nan nan nan nan nan nan nan nan nan nan nan nan -0 -0 -0 nan nan nan nan nan nan nan nan nan nan nan nan nan nan nan nan -0 -0 -0 -0 -0 -0 -0 -0 -0 -1 -1 nan nan nan nan nan nan nan nan nan nan
nan -7 nan nan nan nan nan nan -2 -2 -2 -2 -2 -2 -3 nan nan nan nan nan nan nan nan nan nan nan nan nan nan nan nan nan nan nan nan nan nan nan nan nan nan nan nan nan nan nan -1 -1 -1 nan -0 -0 -0 -0 nan nan nan nan nan nan nan nan nan nan nan nan -0 -0 -0 -0 -0 -0 -0 -0 -0 -1 nan nan nan nan nan nan nan nan nan nan
nan nan nan nan nan nan -3 -2 nan nan -2 -3 -4 -4 -6 nan nan nan nan nan nan nan nan nan nan nan nan nan nan nan nan nan nan nan nan nan nan nan nan nan nan nan nan nan nan nan -1 -2 -2 nan -0 -0 -0 -0 -0 -0 -0 -0 -0 -0 -0 -0 -0 -0 -0 -0 -0 -0 -0 -0 -0 -0 -0 -0 -0 -0 -0 -0 -0 -0 -0 nan nan nan nan nan
-4 -4 nan nan nan nan -3 nan nan nan -2 -5 -5 -5 -4 nan nan nan nan nan nan nan nan nan nan nan nan nan nan nan nan nan nan nan nan nan nan nan nan nan nan nan nan nan nan nan nan nan nan nan -1 -0 -0 -0 -0 -0 -0 -0 -0 -0 -0 -0 -0 -0 -0 -0 -0 -0 -0 -0 -0 -0 -0 -0 -0 -0 -0 -0 -0 -0 -0 -0 -0 -0 -0 -0
-4 -4 nan nan nan -2 -3 nan nan nan -4 -5 -5 -5 -5 nan nan nan nan nan nan nan nan nan nan nan nan nan nan nan nan nan nan nan nan nan nan nan nan nan nan nan nan nan nan nan nan nan nan nan -1 -0 -0 -0 -0 -0 -0 -0 -0 -0 -0 -0 -0 -0 -0 -0 -0 -0 -0 -0 -0 -0 -0 -0 -0 -0 -0 -0 -0 -0 -0 -0 -0 -1 -1 -0
-3 -2 nan nan nan nan -3 nan nan nan nan -4 -6 -6 -8 nan nan nan nan nan nan nan nan nan nan nan nan nan nan nan nan nan nan nan nan nan nan nan nan nan nan nan nan nan nan nan nan nan nan nan -0 -0 -0 -0 -0 -0 -0 -0 -0 -0 -0 -0 -0 -0 -0 -0 -0 -0 -0 -0 -0 -0 -0 -0 -0 -0 -0 -0 -0 -0 -0 -0 -1 -1 -1 nan
-2 -1 -1 -1 -1 -2 -3 nan nan nan nan nan nan nan nan nan nan nan nan nan nan nan nan nan nan nan nan nan nan nan nan nan nan nan nan nan nan nan nan nan nan nan nan nan nan nan nan nan nan -0 -0 -0 -0 -0 -0 -0 -0 -0 -0 -0 -0 -0 -0 -0 -0 -0 -0 -0 -0 -0 -0 -0 -0 -0 -0 -0 -0 -0 -0 -0 -0 -0 -0 -0 -0 -0
-1 -1 -0 -0 -0 -2 nan -1 -1 -1 nan nan nan nan nan nan nan nan nan nan nan nan nan nan nan nan nan nan nan nan nan nan nan nan nan nan nan nan nan nan nan nan nan nan nan nan nan nan nan -1 -0 -0 -0 -0 -0 -0 -0 -0 -0 -0 -0 -0 -0 -0 -0 -0 -0 -0 -0 -0 -0 -0 -0 -0 -0 -0 -0 -0 -0 -0 -0 -0 -0 -0 -0 -0
-1 -0 -0 -0 -0 -1 -1 nan nan nan -0 nan nan nan nan nan nan nan nan nan nan nan nan nan nan nan nan nan nan nan nan nan nan nan nan nan nan nan nan nan nan nan nan nan nan nan nan nan nan nan -0 -0 -0 -0 -0 -0 -0 -0 -0 -0 -0 -0 -0 -0 -0 -0 -0 -0 -0 -0 -0 -0 -0 -0 -0 -0 -0 -0 -0 -0 -0 -0 -0 -0 -0 -0
-1 -1 -0 -0 -0 -1 -0 nan -0 -0 -0 nan nan nan nan nan nan nan nan nan nan nan nan nan nan nan nan nan nan nan nan nan nan nan nan nan nan nan nan nan nan nan nan nan nan nan nan nan nan nan -0 -0 -0 -0 -0 -0 -0 -0 -0 -0 -0 -0 -0 -0 -0 -0 -0 -0 -0 -0 -0 -0 -0 -0 -0 -0 -0 -0 -0 -0 -0 -0 -0 -0 -0 -0
-2 -2 -3 -3 -3 -2 -2 nan nan nan -1 -0 nan nan nan nan nan nan nan nan nan nan nan nan nan nan nan nan nan nan nan nan nan nan nan nan nan nan nan nan nan nan nan nan nan nan nan nan nan nan -0 -0 -0 -0 -0 -0 -0 -0 -0 -0 -0 -0 -0 -0 -0 -0 -0 -0 -0 -0 -0 -0 -0 -0 -0 -0 -0 -0 -0 -0 -0 -0 -0 -0 -0 -0
nan -6 -6 -5 -5 -4 -4 nan nan nan nan nan nan nan nan nan nan nan nan nan nan nan nan nan nan nan nan nan nan nan nan nan nan nan nan nan nan nan nan nan nan nan nan nan nan nan nan nan nan nan -0 -0 -0 -0 -0 -0 -0 -0 -0 -0 -0 -0 -0 -0 -0 -0 -0 -0 -0 -0 -0 -0 -0 -0 -0 -0 -0 -0 -0 -0 -0 -0 -0 -0 -0 -0
-8 -5 -3 -2 -2 -1 -3 nan nan nan nan nan nan nan nan nan nan nan nan nan nan nan nan nan nan nan nan nan nan nan nan nan nan nan nan nan nan nan nan nan nan nan nan nan nan nan nan nan nan nan nan -0 -0 -0 -0 -0 -0 -0 -0 -0 -0 -0 -0 -0 -0 -0 -0 -0 -0 -0 -0 -0 -0 -0 -0 -0 -0 -0 -0 -0 -0 -0 -0 -0 -0 -0
-2 -2 -2 -2 -2 -0 -0 -0 -0 -0 -1 nan nan nan nan nan nan nan nan nan nan nan nan nan nan nan nan nan nan nan nan nan nan nan nan nan nan nan nan nan nan nan nan nan nan nan nan nan nan nan nan nan -0 -0 -0 -0 -0 -0 -0 -0 -0 -0 -0 -0 -0 -0 -0 -0 -0 -0 -0 -0 -0 -0 -0 -0 -0 -0 -0 -0 -0 -0 -0 -0 -0 -0
-0 -0 -0 -0 -0 -0 -0 -0 -0 -0 -0 -0 nan nan nan nan nan nan nan nan nan nan nan nan nan nan nan nan nan nan nan nan nan nan nan nan nan nan nan nan nan nan nan nan nan nan nan nan nan nan nan nan -0 -0 -0 -0 -0 -0 -0 -0 -0 -0 -0 -0 -0 -0 -0 -0 -0 -0 -0 -0 -0 -0 -0 -0 -0 -0 -0 -0 -0 -0 -0 -1 -1 -0
-0 -0 -0 -0 -0 -0 -0 -0 -0 -0 -0 -0 -0 -0 nan nan nan nan nan nan nan nan nan nan nan nan nan nan nan nan nan nan nan nan nan nan nan nan nan nan nan nan nan nan nan nan nan nan nan nan nan nan nan nan nan nan nan -0 -0 -0 -0 -0 -0 -0 -0 -0 -0 -0 -0 -0 -0 -0 -0 -0 -0 -0 -0 -0 -0 -0 -0 -3 nan nan nan nan
-0 -0 -0 -0 -0 -0 -0 -0 -0 -0 -0 -0 -0 -0 nan nan nan nan nan nan nan nan nan nan nan nan nan nan nan nan nan nan nan nan nan nan nan nan nan nan nan nan nan nan nan nan nan nan nan nan nan nan nan nan nan nan nan nan nan -0 -0 -0 -0 -0 -0 -0 -0 -0 -0 -0 -0 -0 -0 -0 -0 -0 -0 -0 -1 -2 -2 -6 nan nan nan nan
-2 -0 -0 -0 -0 -0 -0 -0 -0 -0 -0 -0 -0 -0 -0 nan nan nan nan nan nan nan nan nan nan nan nan nan nan nan nan nan nan nan nan nan nan nan nan nan nan nan nan nan nan nan nan nan nan nan nan nan nan nan nan nan nan nan nan nan nan nan -0 -0 -0 -0 -0 -0 -0 -0 -0 -0 -0 -0 -0 -0 -0 -0 -1 -3 -3 nan nan nan nan nan
-5 -3 -3 -2 -2 -1 -1 -2 -0 -0 -0 -0 -0 -0 -0 nan nan nan nan nan nan nan nan nan nan nan nan nan nan nan nan nan nan nan nan nan nan nan nan nan nan nan nan nan nan nan nan nan nan nan nan nan nan nan nan nan nan nan nan nan nan nan nan nan nan -0 -0 -0 -0 -0 -0 -0 -0 -0 -0 -0 -0 -0 -0 -1 -1 nan nan nan nan nan
nan -4 -4 -4 -4 -6 nan nan nan nan nan nan nan nan -0 -1 nan nan nan nan nan nan nan nan nan nan nan nan nan nan nan nan -0 -0 nan nan nan nan nan nan nan nan nan nan nan nan nan nan nan nan nan nan nan nan nan nan nan nan nan nan nan nan nan nan nan nan nan nan -0 -0 -0 -0 -0 -0 -0 -0 -0 -0 -0 -0 -0 -2 nan nan nan nan
nan nan -5 -5 -5 nan nan nan nan nan nan nan nan nan nan nan -1 -1 nan nan nan nan nan nan nan nan nan nan nan nan nan nan -0 -0 nan nan nan nan nan nan nan nan nan nan nan nan nan nan nan nan nan nan nan nan nan nan nan nan nan nan nan nan nan nan nan nan nan nan nan nan nan nan -0 -0 -0 -0 -0 -0 -0 -0 -0 -0 nan nan nan nan
nan nan nan nan nan nan nan nan nan nan nan nan nan nan nan nan nan nan nan nan nan nan nan nan nan nan nan nan nan nan nan nan -0 -0 nan nan nan nan nan nan nan nan nan nan nan nan nan nan nan nan nan nan nan nan nan nan nan nan nan nan nan nan nan nan nan nan nan nan nan nan nan nan nan nan nan -1 -0 -0 -0 -0 -0 -0 -1 nan nan nan
nan nan nan -3 -3 -3 nan nan nan nan nan nan nan nan nan nan nan nan nan nan nan nan nan nan nan nan nan nan nan nan nan nan -0 -0 -0 nan nan nan nan nan nan nan nan nan nan nan nan nan nan nan nan nan nan nan nan nan nan nan nan nan nan nan nan nan nan nan nan nan nan nan nan nan nan nan nan -4 -1 -1 -0 -0 -0 -0 -1 -0 -0 nan
nan nan nan -2 -2 -2 -2 nan nan nan nan nan nan nan nan nan nan nan nan nan nan nan nan nan nan nan nan nan nan nan nan nan nan nan nan nan nan nan nan nan nan nan nan nan nan nan nan nan nan nan nan nan nan nan nan nan nan nan nan nan nan nan nan nan nan nan nan nan nan nan nan nan nan nan nan nan -2 -2 -1 -1 -1 -0 -0 -2 -2 -5
nan nan nan -2 -2 -1 -1 nan nan nan nan nan nan nan nan nan nan nan nan nan nan nan nan nan nan nan nan nan nan nan nan nan nan nan nan nan nan nan nan nan nan nan nan nan nan nan nan nan nan nan nan nan nan nan nan nan nan nan nan nan nan nan nan nan nan nan nan nan nan nan nan nan nan nan nan nan nan nan nan nan nan -0 -0 -1 -1 -3
nan nan nan -1 -1 -2 nan nan nan nan nan nan nan nan nan nan nan nan nan nan nan nan nan nan nan nan nan -0 nan nan nan nan nan nan nan nan nan nan nan nan nan nan nan nan nan nan nan nan nan nan nan nan nan nan nan nan nan nan nan nan nan nan nan nan nan nan nan nan nan nan nan nan nan nan nan nan nan nan nan nan nan nan nan nan nan -2
nan nan nan nan nan nan nan nan nan nan nan nan nan nan nan nan nan nan nan nan nan nan nan nan nan nan nan nan -0 -0 nan nan nan nan nan nan nan nan nan nan nan nan nan nan nan nan nan nan nan nan nan nan nan nan nan nan nan nan nan nan nan nan nan nan nan nan nan nan nan nan nan nan nan nan nan nan nan nan nan nan nan nan nan nan nan nan
nan nan nan -0 -0 nan nan nan nan nan nan nan nan nan nan nan nan nan nan nan nan nan nan nan nan nan nan nan nan nan nan nan nan nan nan nan nan nan nan nan nan nan nan nan nan nan nan nan nan nan nan nan nan nan nan nan nan nan nan nan nan nan nan nan nan nan nan nan nan nan nan nan nan nan nan nan nan nan nan nan nan nan nan nan nan nan
nan nan nan nan nan nan nan nan nan nan nan nan nan nan nan nan nan nan nan nan nan nan nan nan nan nan nan nan nan nan nan nan nan nan nan nan nan nan nan nan nan nan nan nan nan nan nan nan nan nan nan nan nan nan nan nan nan nan nan nan nan nan nan nan nan nan nan nan nan nan nan nan nan nan nan nan nan nan nan nan nan nan nan nan nan nan
-0 -0 nan nan nan nan nan nan nan nan nan nan nan nan nan nan nan nan nan nan nan nan nan nan nan nan nan nan nan nan nan nan nan nan nan nan nan nan nan nan nan nan nan nan nan nan nan nan nan nan nan nan nan nan nan nan nan nan nan nan nan nan nan nan nan nan nan nan nan nan nan nan nan nan nan nan nan nan nan nan nan nan nan nan nan nan
-1 -1 nan nan nan nan nan nan nan nan nan nan nan nan nan nan nan nan nan nan nan nan nan nan nan nan nan nan nan nan nan nan nan nan nan nan nan nan nan nan nan nan nan nan nan nan nan nan nan nan nan nan nan nan nan nan nan nan nan nan nan nan nan nan nan nan nan nan nan nan nan nan nan nan nan nan nan nan nan nan nan -1 -0 nan nan nan
-2 nan nan nan nan nan nan nan nan nan nan nan nan nan nan nan nan nan nan nan nan nan nan nan nan nan nan nan nan nan nan nan nan nan nan nan nan nan nan nan nan nan nan nan nan nan nan nan nan nan nan nan nan nan nan nan nan nan nan nan nan nan nan nan nan nan nan nan nan nan nan nan nan nan nan nan nan nan nan nan nan nan nan nan nan nan
nan nan nan nan nan nan nan nan nan nan nan nan nan nan nan nan nan nan nan nan nan nan nan nan nan nan nan nan nan nan nan nan nan nan nan -5 -0 -0 nan nan nan nan nan nan nan nan nan nan nan nan nan nan nan nan nan nan nan nan nan nan nan nan nan nan nan nan nan nan nan nan nan nan nan nan nan nan nan nan nan nan nan nan nan nan nan nan
nan nan nan nan nan nan -8 nan nan nan nan nan nan nan nan nan nan nan nan nan nan nan nan nan nan nan nan nan nan nan nan nan nan nan nan nan nan nan nan nan nan nan nan nan nan nan nan nan nan nan nan nan nan nan nan nan nan nan nan nan nan nan nan nan nan nan nan nan nan nan nan nan nan nan nan nan nan nan nan nan nan nan nan nan nan nan
nan nan nan nan nan nan nan -16 nan nan nan -4 nan nan nan nan nan nan nan nan nan nan nan nan nan nan nan nan nan nan nan nan nan nan nan nan nan nan nan nan nan nan nan nan nan nan nan nan nan nan nan nan nan nan nan nan nan nan nan nan nan nan nan nan nan nan nan nan nan nan nan nan nan nan nan nan nan nan nan nan nan nan nan nan nan nan
-8 nan nan nan nan nan nan nan nan nan nan -1 nan nan nan nan nan nan nan nan nan nan nan nan nan nan nan nan nan nan nan nan nan nan nan nan nan nan nan nan nan nan nan nan nan nan nan nan nan nan nan nan nan nan nan nan nan nan nan nan nan nan nan nan nan nan nan nan nan nan nan nan nan nan nan nan nan nan nan nan nan nan nan nan nan nan
nan nan nan nan nan nan nan nan nan nan nan nan nan nan nan nan -2 -2 nan nan nan nan nan nan nan nan nan nan nan nan nan nan nan nan nan nan nan nan nan nan nan nan nan nan nan nan nan nan nan nan nan nan nan nan nan nan nan nan nan nan nan nan nan nan nan nan nan nan nan nan nan nan nan nan nan nan nan nan nan nan nan nan nan nan nan nan
nan nan nan nan nan nan nan nan nan nan nan nan -5 -5 nan nan nan nan nan nan nan nan nan nan nan nan nan nan nan nan nan nan nan nan nan nan nan nan nan nan nan nan nan nan nan nan nan nan nan nan nan nan nan nan nan nan nan nan nan nan nan nan nan nan nan nan nan nan nan nan nan nan nan nan nan nan nan nan nan nan nan nan nan nan nan nan
nan nan nan nan nan nan nan nan nan nan nan -10 -8 -8 -9 nan nan nan nan nan nan nan nan nan nan nan nan nan nan nan nan nan nan nan nan nan nan nan nan nan nan nan nan nan nan nan nan nan nan nan nan -0 nan nan nan nan nan nan nan nan nan nan nan nan nan nan nan nan nan nan nan nan nan nan nan nan nan nan nan nan nan nan nan nan nan nan
Wind_Speed
4 4 5 8 8 7 6 9 11 10 9 9 9 8 8 9 10 10 13 13 13 12 12 12 13 14 17 24 30 34 36 36 37 37 37 33 28 20 10 1 6 10 11 10 10 10 11 12 12 12 11 11 12 12 13 13 14 16 19 24 28 32 34 34 35 34 34 33 32 31 29 28 26 24 23 23 23 24 25 26 26 26 26 25 24 23
4 4 5 8 8 7 6 9 11 11 10 10 9 9 8 9 9 9 10 12 12 12 11 12 13 14 16 19 26 33 35 36 37 38 38 37 33 28 19 9 1 5 8 9 9 9 10 11 11 12 13 14 15 17 18 18 18 20 23 26 30 32 34 34 34 34 34 33 31 30 28 26 25 24 23 24 25 27 28 28 28 27 26 25 24 23
5 5 5 6 7 6 6 8 10 10 10 9 9 9 9 9 9 9 9 10 11 11 11 11 12 13 15 17 24 31 34 35 36 37 38 39 38 34 28 19 11 3 2 4 6 6 7 9 10 12 15 17 20 22 23 22 22 24 26 28 30 32 33 33 33 33 33 31 30 28 27 26 25 25 26 26 27 28 29 29 29 28 27 25 24 22
5 5 6 5 5 5 5 7 8 9 8 8 9 10 9 7 7 8 9 9 10 10 10 11 12 12 13 14 20 27 33 34 35 37 38 39 39 38 36 29 22 14 8 4 4 5 6 8 10 13 16 20 24 27 27 25 25 25 27 29 30 31 32 32 32 31 30 29 28 27 27 27 28 28 27 27 28 29 30 30 29 28 26 24 23 21
5 5 6 5 5 5 5 6 6 7 7 7 8 9 8 6 6 7 8 9 10 10 10 10 12 12 11 12 17 24 30 32 34 35 37 38 39 40 39 37 32 26 19 14 9 7 7 8 10 13 18 23 28 31 30 28 26 26 27 29 30 30 31 30 29 28 27 28 28 29 29 28 28 28 27 27 28 29 30 29 29 27 25 24 22 21
5 5 5 5 5 4 4 5 6 6 6 6 7 7 7 5 5 6 8 9 10 9 9 9 10 11 12 13 17 23 27 30 32 33 35 37 38 39 40 40 38 35 30 25 19 14 11 10 11 14 18 25 30 33 32 29 28 27 28 29 29 29 29 29 29 29 29 29 30 29 29 28 28 27 27 27 28 29 29 29 28 26 25 23 22 20
4 4 4 4 4 4 4 5 6 7 6 6 6 6 6 6 5 6 8 8 9 8 9 9 9 10 12 14 17 20 23 25 27 29 32 34 35 37 39 40 41 40 38 34 29 23 18 14 13 15 19 25 30 33 33 31 29 29 29 29 29 29 30 30 31 31 31 31 30 29 28 28 27 27 27 27 28 28 28 28 27 26 24 23 21 20
5 4 4 4 4 4 4 4 6 7 7 6 6 6 6 6 6 6 7 8 8 9 9 9 10 11 11 13 15 16 17 18 20 22 25 27 29 32 34 37 39 40 40 39 36 32 27 21 18 17 20 24 28 31 33 31 31 31 31 31 32 32 32 32 32 32 31 30 29 28 28 27 27 27 27 27 27 27 27 27 26 25 23 22 21 20
5 5 5 5 5 5 4 4 5 6 7 6 6 6 7 7 6 6 6 7 8 9 9 10 10 11 11 12 13 14 15 15 16 17 19 20 22 25 29 31 34 38 40 41 40 38 34 29 25 22 22 24 27 30 31 32 32 33 33 33 33 33 33 32 32 31 31 30 29 28 28 27 27 27 27 27 26 26 26 25 24 23 22 22 21 20
5 6 5 5 5 5 5 5 5 5 6 5 5 5 6 7 7 7 7 8 8 8 8 9 10 11 11 12 12 12 13 15 17 20 21 22 23 25 26 27 29 33 38 39 40 40 39 35 32 28 25 25 28 30 32 34 34 35 35 34 33 32 32 31 30 30 29 29 29 28 28 28 27 27 27 26 25 24 23 23 22 21 21 21 20 19
5 5 5 5 4 4 4 5 5 5 5 5 5 5 6 7 8 8 8 8 8 8 8 9 9 10 11 11 11 12 12 12 14 17 20 22 24 25 25 26 28 30 34 35 37 38 39 38 36 33 30 28 29 31 33 35 35 35 34 33 32 31 30 29 29 28 28 28 28 28 28 28 28 27 26 25 24 22 22 21 20 20 20 20 19 19
5 4 4 4 4 4 5 5 4 4 4 5 6 7 8 8 8 7 8 8 8 8 8 8 8 9 10 10 10 10 11 11 11 12 14 16 18 19 19 20 22 25 26 28 30 33 36 37 37 35 32 30 30 30 32 33 34 34 33 32 31 30 28 28 27 27 27 27 27 27 27 27 27 27 25 24 22 21 21 20 20 20 19 19 19 19
4 4 4 4 5 5 5 5 5 5 6 7 8 9 9 8 7 7 6 7 7 7 6 6 7 8 9 9 9 9 10 10 10 10 11 13 14 14 13 14 15 16 17 19 20 23 29 31 32 32 32 31 30 30 31 31 32 32 31 30 29 28 27 27 26 26 26 26 26 27 27 27 26 25 24 23 22 21 20 20 20 19 19 19 19 18
4 4 4 5 5 5 6 6 6 7 7 8 7 7 6 6 6 6 6 7 7 6 5 5 6 7 8 9 9 9 9 8 9 9 11 12 12 12 11 11 12 12 13 14 16 18 22 22 23 24 29 29 30 30 31 31 31 31 30 29 29 28 27 26 26 25 25 26 26 26 26 26 25 24 23 22 21 20 20 20 19 19 19 18 18 18
5 5 5 5 5 6 6 6 6 7 7 6 6 6 6 6 6 7 7 7 7 6 5 5 6 7 7 8 9 9 9 8 8 9 11 11 12 11 10 10 10 11 12 13 14 15 19 18 17 17 21 26 29 30 31 31 31 31 30 29 28 28 27 26 26 25 26 26 26 26 25 25 24 23 22 21 20 19 19 19 18 18 18 18 17 17
4 5 5 5 5 5 5 5 6 6 6 6 6 6 7 7 7 7 6 6 5 5 5 5 6 6 6 7 8 9 9 8 8 9 10 11 11 11 10 10 10 11 12 13 13 13 14 15 15 16 18 25 30 32 33 32 32 31 30 29 28 27 27 27 26 26 26 26 26 25 25 24 23 22 21 20 19 18 18 18 18 17 17 17 16 15
4 4 4 5 5 5 5 5 5 5 5 5 5 6 6 6 6 6 6 5 5 5 5 5 5 5 5 6 7 9 9 7 7 7 9 10 10 10 10 9 10 11 11 12 12 12 12 13 13 14 16 24 29 31 32 32 31 31 30 29 28 27 27 27 27 27 27 26 25 24 24 23 22 21 20 19 18 17 17 17 17 16 16 16 15 14
4 4 4 5 5 4 4 4 4 4 5 5 5 5 5 5 5 5 5 5 5 5 5 5 5 4 3 4 6 8 8 7 6 6 9 10 9 9 9 9 9 10 11 11 11 10 11 12 13 14 17 25 29 30 31 31 30 30 29 28 28 27 28 28 28 27 27 26 25 23 22 22 21 20 19 18 17 16 16 16 16 15 15 14 14 13
4 4 5 4 4 4 4 4 5 5 5 5 5 5 5 5 5 5 5 5 5 5 5 5 5 4 4 3 4 6 7 6 5 6 8 8 8 8 9 8 9 11 11 11 11 10 9 10 14 19 24 27 29 29 29 29 29 28 28 28 28 28 28 28 27 27 26 25 24 22 21 21 20 19 18 17 16 16 15 15 15 14 14 14 13 13
5 5 5 4 4 4 5 5 5 5 5 5 4 4 4 4 5 5 5 5 5 5 4 5 5 5 4 3 4 6 7 5 4 6 8 8 7 8 8 8 9 11 11 10 10 9 9 9 12 16 23 26 27 28 28 27 27 27 27 27 27 27 27 27 26 25 25 23 22 21 20 19 18 17 16 15 15 14 14 14 14 13 13 13 12 11
5 5 5 5 4 4 4 5 6 6 6 5 4 4 3 4 4 5 5 5 5 5 5 5 5 4 3 4 4 6 6 5 4 4 5 6 6 7 7 7 8 10 11 10 9 9 9 9 9 12 19 23 25 26 26 26 26 26 27 27 26 26 26 25 24 24 23 22 21 20 19 18 16 15 14 14 13 13 13 13 13 13 12 12 11 10
4 5 5 5 5 4 4 5 6 7 7 6 5 4 3 4 4 4 4 4 4 5 5 5 4 3 3 4 4 5 6 5 4 3 3 6 6 7 6 6 7 8 10 9 8 8 8 9 9 12 19 23 25 25 25 25 25 25 25 25 25 25 24 23 23 22 22 21 20 19 18 16 15 14 13 12 12 12 12 12 12 12 11 11 10 10
4 4 4 5 5 4 4 5 5 6 6 6 5 4 3 2 2 2 2 2 3 3 3 3 3 3 3 4 4 5 6 5 4 3 3 6 6 5 5 5 6 7 8 7 7 7 8 8 9 11 16 23 24 24 24 24 24 24 24 24 23 23 22 22 21 21 20 20 19 18 17 15 14 13 12 12 11 11 11 11 11 11 11 10 10 9
4 4 4 4 4 4 4 4 5 5 5 5 4 4 3 2 1 1 1 1 2 2 2 2 3 4 4 5 5 6 7 6 5 4 4 5 5 4 4 4 6 7 7 6 5 6 7 8 8 8 10 19 22 23 23 22 22 22 22 22 22 22 21 21 20 20 19 19 18 17 16 14 13 13 12 11 11 11 11 11 11 10 10 10 9 9
4 4 4 5 7 8 7 7 7 7 7 6 5 5 4 3 3 2 2 2 2 2 2 3 4 5 5 5 6 6 6 6 6 4 3 4 4 3 4 4 5 6 6 5 5 5 6 7 7 7 8 13 18 22 22 22 21 21 21 21 21 20 20 19 19 18 18 17 16 16 15 14 13 12 12 11 11 11 11 10 10 10 10 10 9 9
7 8 9 10 12 14 15 15 15 15 13 10 8 6 6 5 4 3 4 4 4 3 3 4 5 5 4 4 5 5 5 5 5 5 3 3 3 3 3 4 4 5 5 4 5 5 6 6 7 7 7 9 13 18 20 21 21 21 21 20 20 19 19 18 18 17 16 16 15 14 14 13 12 12 11 11 10 10 10 9 9 9 9 9 8 8
13 14 15 16 16 17 18 18 19 19 19 17 14 11 7 5 4 4 5 4 4 4 4 5 5 5 4 5 5 4 4 5 5 5 3 2 3 3 3 3 3 3 4 4 5 6 7 7 6 6 6 6 8 12 18 19 20 20 20 20 19 19 18 18 17 16 15 15 14 13 13 12 12 12 11 10 10 9 8 8 8 8 7 7 6 7
14 15 15 16 16 17 17 18 18 19 20 20 18 15 10 6 5 5 6 4 4 3 4 5 5 4 4 4 4 3 4 5 5 5 3 2 3 2 2 2 2 2 2 3 3 5 7 6 6 6 5 6 6 8 12 15 17 17 18 18 19 18 18 17 16 16 15 14 14 13 13 12 12 12 11 10 9 9 8 7 7 6 6 5 4 3
12 13 14 15 15 15 15 16 17 18 20 19 18 15 10 7 6 6 5 4 4 4 4 4 4 3 3 3 2 3 4 5 5 5 3 3 2 2 2 1 1 1 1 1 2 3 5 5 5 5 5 6 6 6 8 10 11 12 13 15 16 16 16 16 16 15 15 14 14 13 13 12 12 12 12 11 10 10 9 8 7 6 4 4 3 3
8 9 10 12 12 12 12 12 13 15 17 18 17 14 10 7 6 5 4 5 4 4 5 5 4 3 2 2 2 3 4 5 5 5 3 3 2 2 2 2 1 1 1 1 1 2 3 4 4 4 5 6 6 5 5 6 7 7 7 10 11 13 14 14 14 14 14 14 14 13 13 13 12 12 12 12 12 11 10 9 8 5 4 3 3 3
6 6 7 7 8 8 8 8 9 10 12 14 14 12 10 8 6 5 5 5 5 5 5 5 5 4 4 3 3 3 3 4 5 5 3 2 2 2 2 2 2 1 0 1 1 1 1 2 3 4 4 4 5 5 5 5 5 5 4 5 7 8 11 12 12 12 12 13 13 13 13 13 13 13 13 13 12 12 12 11 8 6 3 3 3 3
5 5 5 5 5 6 6 6 6 7 8 9 9 9 9 8 7 6 6 5 5 5 5 5 5 5 4 4 4 3 2 3 5 6 4 2 1 1 2 2 2 2 1 1 2 2 2 1 1 2 3 3 4 4 5 5 5 4 4 4 5 6 9 9 9 9 9 10 11 12 12 12 12 13 12 13 13 12 12 11 9 6 4 3 3 3
5 5 5 5 5 5 5 5 6 6 6 6 7 7 7 7 7 7 6 6 5 5 5 5 5 5 4 4 4 3 2 3 5 7 5 2 1 2 3 3 2 2 2 3 3 3 3 2 1 1 2 2 3 3 4 5 5 4 4 4 4 5 6 7 6 6 7 8 8 9 10 11 11 11 12 12 12 12 12 11 10 8 5 4 3 3
5 5 5 5 5 5 5 6 6 6 6 6 6 6 6 6 6 6 6 6 5 5 5 5 4 4 4 4 4 3 3 4 6 8 6 3 2 1 2 3 3 3 2 3 3 3 3 2 1 1 1 1 2 3 3 4 4 4 4 4 4 4 5 5 5 5 5 5 5 6 7 7 8 9 9 9 10 10 11 11 10 9 7 5 4 3
4 5 5 5 5 5 5 6 6 6 6 6 6 6 6 5 5 5 5 5 5 5 5 5 5 4 4 4 3 3 3 4 6 8 7 3 2 1 2 3 3 3 2 2 2 2 2 2 2 2 1 1 2 2 2 3 3 3 3 4 4 4 4 4 4 4 4 4 4 4 4 5 5 6 6 7 8 9 10 10 10 10 9 7 6 4
4 4 5 5 5 5 5 5 5 5 5 5 4 5 5 5 5 5 5 5 5 5 6 5 5 5 4 4 4 3 3 4 6 7 7 4 2 2 2 3 3 3 3 2 2 2 2 2 2 2 2 2 1 2 2 2 2 3 3 4 4 4 4 4 4 4 4 4 4 4 4 4 4 5 5 7 8 9 10 10 10 10 9 8 7 6
4 4 4 4 4 4 4 4 4 4 4 4 3 3 4 4 4 5 5 5 5 5 5 6 6 6 6 5 4 3 3 3 5 6 7 5 3 2 2 2 3 3 3 2 2 1 2 2 2 2 3 2 2 1 2 3 3 3 3 4 4 4 5 5 4 4 4 4 4 4 4 4 4 5 5 7 8 8 9 10 10 9 9 8 7 7
4 4 4 4 4 3 3 3 3 3 3 3 3 2 2 3 4 4 4 4 4 5 5 5 5 6 8 7 6 5 4 5 6 7 8 6 4 3 3 2 3 4 3 2 1 1 2 2 2 2 2 2 1 1 1 2 2 2 2 2 3 4 4 5 5 4 4 4 4 5 5 5 4 4 5 5 6 6 6 6 7 8 8 7 7 6
4 4 4 4 3 3 3 3 3 2 2 2 2 2 1 2 3 3 4 4 4 4 5 4 5 5 6 7 8 8 7 7 8 8 8 7 5 4 3 3 3 4 4 3 2 2 2 2 2 2 1 1 1 1 2 2 2 2 2 2 3 4 4 5 5 5 4 4 4 5 5 4 4 4 4 4 4 4 4 4 5 6 6 5 5 5
3 3 3 3 3 3 2 2 2 2 2 2 2 2 1 2 2 2 3 3 4 4 4 4 5 5 5 6 7 7 7 7 7 8 7 7 6 4 4 3 3 4 4 4 4 4 4 3 3 2 2 2 1 1 1 2 2 1 2 2 2 3 4 4 4 4 4 4 4 4 4 4 4 4 4 4 4 4 4 3 4 4 5 4 4 4
3 3 3 3 3 3 2 2 2 2 2 2 3 3 3 2 1 1 2 2 2 2 3 3 4 4 5 5 6 6 6 6 7 7 6 7 7 6 4 4 3 3 3 4 4 4 4 4 3 3 2 2 2 1 1 1 2 2 2 2 1 1 2 4 4 4 4 4 4 4 4 4 4 4 4 4 4 4 3 3 3 3 4 3 3 3
4 3 2 2 2 2 2 2 3 3 3 3 3 3 3 3 2 2 1 1 1 1 1 1 2 3 4 5 5 5 6 6 7 7 7 8 8 7 5 5 4 3 3 3 3 4 4 4 3 3 2 2 2 2 1 2 2 2 3 2 1 1 2 4 4 4 4 4 4 4 5 4 3 4 4 4 4 3 4 4 4 4 4 4 3 3
3 2 2 1 1 1 1 2 3 3 3 3 3 4 3 3 3 2 2 1 1 1 1 1 2 2 3 4 4 4 5 5 6 7 7 7 7 7 6 6 5 4 3 3 3 3 3 4 3 2 1 1 2 2 2 1 2 3 3 2 2 1 2 2 3 3 3 3 3 3 4 3 3 2 2 3 3 3 4 4 5 5 5 4 3 3
2 2 1 1 1 1 1 2 2 3 3 4 4 4 4 4 3 3 3 2 2 2 1 1 1 2 3 3 3 3 3 4 5 6 6 7 7 7 6 6 6 5 4 3 2 2 2 3 3 2 2 2 2 3 2 2 1 2 2 3 3 3 2 1 2 3 3 3 3 3 3 3 3 2 2 3 3 3 3 3 4 4 5 4 3 3
2 1 1 1 1 1 2 2 2 3 3 3 3 3 4 4 4 4 3 3 3 3 3 2 1 2 2 2 2 1 1 2 3 4 4 7 8 8 6 6 5 5 5 4 3 2 2 2 2 2 2 2 3 3 3 2 2 2 2 3 3 3 2 1 1 2 2 3 3 3 3 3 2 2 2 3 3 3 3 4 4 4 4 4 4 4
2 2 2 1 2 2 2 2 2 2 3 3 3 3 3 3 3 3 4 3 3 3 3 3 2 2 2 1 1 1 1 2 2 3 3 4 4 4 5 5 4 4 4 4 4 3 3 2 1 2 2 3 3 4 3 3 2 2 2 2 2 2 2 2 2 2 2 2 3 3 3 3 2 2 2 3 3 3 3 4 4 4 4 4 4 4
2 2 2 2 2 2 2 1 2 2 3 3 3 2 2 2 2 3 3 3 3 3 3 3 3 3 2 1 1 1 1 2 2 2 2 3 3 3 2 3 3 3 3 3 3 3 3 3 2 2 2 3 3 3 3 3 3 2 1 1 2 2 2 2 2 2 2 2 2 3 3 3 3 2 2 2 2 3 3 4 4 4 4 4 4 4
3 3 2 2 2 2 2 2 2 2 2 3 3 2 2 2 3 3 2 3 3 2 2 2 2 2 2 2 2 1 1 2 2 2 2 2 2 2 2 1 1 2 2 2 3 3 3 4 4 4 3 3 2 2 2 3 3 2 1 1 2 2 2 2 2 2 2 2 2 2 2 2 2 2 2 2 2 2 3 3 4 4 4 4 4 4
2 2 2 2 2 2 2 2 2 2 2 3 3 2 2 3 3 4 2 2 2 2 2 3 2 2 2 2 2 2 2 2 2 2 2 2 2 2 2 2 1 1 1 2 3 3 3 4 5 5 4 4 3 2 2 2 2 2 2 2 2 2 2 2 2 2 2 2 2 2 2 1 1 1 1 2 2 3 3 3 3 4 4 4 4 4
3 2 2 2 2 2 2 2 2 2 2 2 2 2 2 2 2 2 2 2 2 2 2 3 3 3 2 2 2 2 2 2 2 2 2 2 2 2 3 2 1 1 1 2 2 3 3 3 4 5 7 6 5 4 2 2 2 2 2 2 2 2 2 1 2 2 2 2 2 2 2 1 1 1 2 2 3 3 3 3 3 3 4 3 4 4
3 3 3 2 2 2 2 2 2 2 2 2 2 2 2 2 1 1 1 1 2 2 2 2 2 2 3 2 2 2 3 2 2 2 2 2 2 3 3 3 2 1 1 1 2 2 2 2 2 3 6 8 8 6 3 2 2 2 2 2 2 1 1 1 1 2 2 2 2 2 2 2 2 2 2 2 2 2 2 3 3 3 3 3 4 4
Wind_Direction
330 334 337 339 338 339 346 356 355 353 350 351 352 353 358 2 2 0 0 1 1 1 0 358 357 358 360 5 8 10 11 12 14 15 16 16 17 17 14 317 216 213 212 212 214 217 220 221 217 207 192 175 160 148 136 130 132 138 146 148 143 138 134 132 130 129 127 126 126 127 129 133 137 142 147 143 138 132 125 119 114 111 108 106 105 105
333 336 340 342 342 342 346 357 358 356 352 352 351 352 357 2 3 2 1 2 3 3 2 359 358 360 2 5 8 10 12 14 15 17 18 19 20 20 20 17 324 216 211 211 212 213 213 209 199 184 168 153 141 132 124 123 126 131 136 134 131 129 127 126 125 125 124 124 126 129 132 134 134 134 132 127 122 118 115 111 109 107 105 104 104 104
338 341 344 344 345 346 348 357 358 356 352 351 351 351 354 2 6 6 4 2 2 3 3 1 1 2 4 5 8 10 12 14 17 19 20 22 23 24 24 24 24 30 174 186 188 189 187 180 170 160 150 140 131 123 118 119 122 125 127 125 124 123 123 123 123 123 124 125 127 129 129 127 124 120 118 116 114 112 110 108 106 105 104 104 104 105
341 345 347 345 345 348 351 356 356 354 350 351 351 352 354 4 11 11 7 4 3 2 3 3 4 5 5 6 7 9 11 15 18 20 22 24 25 26 27 27 28 30 42 70 107 127 135 142 144 143 140 133 126 120 117 118 120 122 122 121 121 121 121 121 122 123 124 123 122 120 119 116 114 112 112 112 111 109 107 106 105 105 105 106 107 108
346 349 348 346 345 346 349 356 356 352 348 352 354 355 356 4 13 15 12 10 8 6 4 5 6 8 8 7 7 9 11 14 18 21 23 25 26 28 29 30 30 31 32 38 49 70 91 109 125 133 135 130 124 120 118 119 121 121 121 120 120 120 121 120 120 119 118 115 112 111 111 111 111 111 110 110 108 107 106 106 106 106 108 109 110 111
347 351 350 349 347 344 344 355 357 355 350 353 357 358 357 360 11 19 17 14 11 8 6 6 7 9 10 10 9 9 11 14 17 20 23 25 27 29 31 32 33 33 33 33 36 44 61 86 109 123 129 127 123 120 119 121 122 121 119 118 117 117 116 114 112 111 109 109 108 109 110 110 110 110 109 109 108 107 107 107 108 109 110 111 113 114
346 351 354 352 349 345 344 355 359 359 357 355 357 359 358 359 9 21 24 20 16 12 9 8 9 10 11 11 10 10 11 14 16 19 22 25 27 29 31 33 34 35 36 35 35 38 45 64 87 106 116 119 118 118 120 120 120 118 116 113 111 110 108 107 106 106 106 107 108 109 109 110 110 110 109 109 108 108 108 109 110 111 113 114 116 118
347 352 358 356 353 349 349 356 1 2 360 358 358 359 359 360 7 18 25 25 23 19 14 10 11 12 12 11 11 11 12 14 15 17 20 23 26 28 31 33 35 36 38 38 38 38 40 48 63 83 99 106 110 112 115 115 114 112 109 107 105 104 104 104 105 106 107 108 109 110 110 110 110 110 109 108 108 109 109 110 112 114 116 117 118 119
353 356 360 360 358 355 351 354 359 1 2 1 1 1 0 360 2 9 19 25 26 24 19 15 13 12 11 11 11 12 14 16 18 18 20 21 24 27 30 32 35 37 38 39 40 40 40 42 49 62 78 90 98 102 105 105 105 103 102 102 101 102 103 105 107 108 110 111 111 112 112 111 111 110 108 108 108 109 110 112 114 116 118 119 118 117
1 2 2 2 2 360 357 353 353 356 1 2 4 6 6 3 2 5 14 21 24 25 24 21 17 13 9 9 10 12 13 17 19 21 22 23 26 29 31 32 34 36 38 39 40 41 41 41 43 48 60 74 84 91 94 95 96 96 97 98 99 101 103 105 108 109 111 112 113 113 113 111 110 109 108 108 108 110 112 113 115 116 116 115 114 112
5 6 5 3 2 2 2 355 351 349 354 1 7 12 17 12 8 8 12 15 18 21 26 25 23 18 12 8 8 9 12 15 17 18 20 22 25 28 30 32 34 36 37 38 39 40 41 42 43 44 50 60 72 80 86 89 90 92 94 95 97 99 101 103 106 108 110 111 112 112 111 110 108 107 107 108 109 110 112 112 112 112 111 110 108 105
7 7 7 4 3 1 0 355 350 349 356 6 11 14 15 12 9 9 13 13 14 16 22 26 27 25 21 12 8 7 12 15 16 16 17 19 21 23 26 29 32 33 35 36 37 38 40 42 43 44 46 51 60 70 78 83 87 89 91 93 94 96 98 100 103 105 107 108 109 108 107 106 106 106 106 107 108 109 109 109 108 107 107 105 103 101
8 8 7 7 7 5 1 358 358 1 8 15 16 14 8 3 2 6 14 16 14 11 16 26 30 30 27 20 14 10 11 14 17 18 21 20 18 17 20 25 28 30 33 35 35 35 37 41 42 44 45 49 54 61 69 75 80 84 87 89 90 92 94 96 99 101 103 104 104 104 103 102 103 103 104 105 106 106 106 105 105 105 104 102 100 98
8 6 9 12 12 9 6 4 6 9 12 17 17 14 3 357 359 5 14 17 13 7 9 29 37 36 30 24 18 13 13 14 17 22 27 24 19 14 15 24 28 31 34 37 36 34 34 38 41 44 45 49 53 58 62 68 73 77 80 83 85 88 90 92 94 95 97 97 98 98 98 98 99 99 100 101 101 102 102 103 103 102 101 100 98 97
8 8 12 14 14 11 8 7 9 10 11 13 14 11 4 3 4 9 16 16 10 5 8 27 39 42 39 29 19 13 12 16 21 26 30 26 20 14 13 23 30 33 36 39 38 35 34 38 40 43 45 50 55 59 62 65 68 71 74 77 80 83 85 87 88 89 89 89 89 90 91 92 93 94 95 96 97 98 99 100 100 100 99 99 99 99
10 11 15 15 15 13 9 8 8 8 6 8 11 12 11 10 9 10 16 13 9 6 12 22 31 37 38 31 23 16 12 18 24 30 35 29 20 13 12 23 31 35 36 39 39 37 35 39 41 44 48 54 59 62 64 65 67 69 71 73 76 79 81 82 83 83 82 82 82 83 84 86 87 89 90 91 92 94 95 96 97 97 97 98 98 99
13 14 15 16 15 12 7 7 8 7 4 8 13 16 18 15 12 11 15 13 13 14 18 23 28 30 24 18 15 12 9 16 24 32 40 34 23 12 10 23 33 37 37 38 38 37 37 38 40 44 49 55 60 63 65 66 67 69 70 72 74 76 77 78 78 78 78 78 78 79 80 82 84 85 86 87 89 90 91 92 93 93 94 95 96 96
17 15 14 16 13 8 2 4 5 5 5 9 12 16 19 18 17 17 18 19 21 23 23 29 32 32 25 12 360 356 358 8 20 33 43 38 26 13 10 24 34 40 40 37 34 34 37 40 41 44 51 57 60 63 66 68 69 69 70 71 72 73 74 75 75 76 76 76 77 77 78 80 81 83 84 85 86 87 87 88 88 88 89 90 91 92
19 17 16 14 8 3 2 3 2 2 4 5 6 9 14 16 18 21 23 25 27 29 31 36 37 35 37 21 354 344 348 355 17 39 48 41 28 15 11 23 34 40 42 36 31 28 33 41 46 49 52 56 59 62 65 67 69 70 71 71 70 70 71 72 73 74 74 75 76 76 77 78 79 80 81 83 84 85 86 86 87 87 88 88 89 90
25 20 16 8 2 1 5 3 1 358 357 354 356 2 11 12 18 24 26 28 29 32 37 45 43 37 31 19 359 349 346 350 17 43 54 47 33 18 12 23 34 41 42 35 27 22 25 34 43 48 51 54 57 60 63 65 68 69 70 70 70 70 69 70 71 72 73 74 74 75 75 76 77 79 82 84 86 87 88 89 90 91 91 91 92 93
33 26 14 5 3 5 6 359 355 351 347 344 348 357 7 11 19 25 27 29 31 33 38 45 43 36 28 24 8 356 348 357 15 39 55 51 38 22 12 21 34 42 43 34 26 21 23 28 35 43 49 54 57 59 61 64 66 68 69 70 70 70 69 70 70 70 71 71 71 71 72 73 75 78 81 84 87 89 90 92 93 94 95 96 97 97
39 29 12 8 9 10 5 355 349 347 344 345 348 356 1 7 14 21 24 30 36 40 45 50 50 46 44 39 22 5 358 7 15 30 56 53 40 23 8 18 35 44 45 35 26 22 24 28 33 40 46 51 55 59 61 63 65 67 68 69 70 70 70 70 70 70 69 69 68 67 67 68 70 73 77 81 85 88 91 93 95 97 99 99 100 101
43 33 17 14 13 12 5 358 352 350 350 352 352 349 343 351 4 15 24 39 49 55 61 71 74 69 59 51 35 21 14 12 10 24 64 60 44 21 3 14 36 47 47 35 26 24 30 34 34 36 41 46 51 56 60 63 65 67 68 69 70 70 70 70 70 69 68 68 67 66 65 65 66 68 72 76 80 85 89 92 95 97 100 100 101 102
42 37 28 23 21 17 12 8 4 1 358 357 352 343 329 331 349 27 59 71 71 73 76 79 70 59 48 43 37 29 20 13 11 24 63 67 56 31 5 16 39 49 47 35 29 30 36 38 34 30 32 39 43 48 54 59 63 66 67 68 69 69 69 69 69 68 68 68 67 66 66 65 65 66 68 71 75 80 85 88 91 94 96 97 97 97
45 43 40 37 34 32 30 27 24 20 15 7 358 351 347 357 11 27 36 43 45 44 44 54 54 49 39 38 36 31 20 14 14 23 55 70 63 42 17 23 40 51 50 36 30 33 40 39 34 29 28 33 37 41 46 51 56 61 64 66 67 68 68 68 67 67 67 68 68 68 67 66 66 66 66 68 71 75 78 81 83 85 86 87 87 87
51 49 48 46 43 40 38 37 35 33 30 26 17 8 4 9 17 28 33 30 28 27 30 48 52 50 41 41 38 31 16 14 18 24 42 71 69 50 25 23 39 54 58 42 33 33 41 39 34 30 29 29 32 35 38 43 48 52 57 60 62 63 65 65 66 66 67 68 68 68 68 68 67 67 67 68 70 72 74 76 78 78 78 77 77 77
54 52 51 48 45 42 39 38 38 37 36 33 29 23 15 13 21 31 33 22 18 22 35 49 53 50 42 43 39 30 15 17 20 23 30 63 69 55 25 18 32 53 65 54 44 41 45 42 35 29 29 24 24 28 33 36 40 44 48 51 54 56 58 60 62 63 65 66 67 67 67 67 67 67 68 68 69 70 72 74 75 75 73 71 69 69
54 51 49 47 44 41 39 38 38 38 38 36 33 29 23 22 29 33 25 6 3 18 39 49 53 52 47 47 41 32 24 25 20 16 20 57 65 52 12 9 24 48 72 72 61 52 50 44 36 29 25 22 20 23 27 31 34 38 41 45 47 49 51 53 55 57 60 62 63 64 65 65 65 65 65 64 64 64 65 68 70 71 69 66 60 56
55 53 50 47 45 42 39 37 36 37 38 37 36 33 28 30 34 33 14 353 356 16 38 43 46 49 55 57 49 39 35 29 18 10 18 53 58 38 346 2 27 52 84 96 77 59 50 41 33 26 22 20 20 21 21 24 28 31 34 39 42 44 46 48 50 52 54 56 58 60 61 61 61 61 60 58 57 56 55 57 59 62 63 61 58 52
53 52 49 46 43 41 38 36 35 35 36 37 37 35 32 33 34 30 11 359 5 21 38 39 35 31 28 37 39 35 32 20 10 7 23 51 47 16 344 357 12 41 98 110 88 62 48 35 27 22 19 21 22 21 19 20 21 23 26 33 37 40 41 43 45 48 50 52 53 54 56 56 57 56 56 54 52 50 48 48 50 51 52 54 54 51
47 49 48 44 41 39 37 36 35 35 34 35 36 35 33 32 31 27 18 13 15 24 39 43 39 29 16 23 35 36 23 1 357 2 28 53 44 3 348 356 355 353 59 114 106 87 64 29 13 8 10 20 23 23 21 21 21 21 22 29 33 34 35 36 40 43 46 47 48 49 50 51 52 52 52 51 50 48 46 45 45 46 46 50 51 51
47 50 50 45 42 39 39 37 36 34 34 34 34 34 34 32 31 27 24 21 20 24 35 47 49 44 33 40 49 50 23 345 348 357 19 48 37 350 349 2 359 352 3 50 86 99 102 75 4 347 353 12 20 21 20 22 22 22 24 31 32 30 28 30 33 37 40 41 42 43 45 46 47 48 49 50 49 48 46 44 44 44 42 45 46 45
50 52 51 49 46 43 40 38 37 37 37 36 35 34 33 32 31 30 28 26 25 26 32 43 50 52 49 51 54 53 31 353 351 356 9 35 40 358 349 4 7 7 12 33 52 72 93 104 101 340 344 359 12 19 20 22 23 24 26 33 32 26 21 22 26 31 34 36 36 37 37 40 41 43 45 47 48 48 47 45 44 44 43 43 42 40
53 53 53 52 49 46 41 39 38 38 39 39 38 36 35 34 33 32 31 31 30 31 32 36 41 45 48 52 50 43 27 3 354 355 2 26 44 18 356 9 9 10 23 35 46 58 77 91 104 99 13 360 6 15 21 21 21 21 26 35 35 28 17 16 18 22 27 31 32 29 27 30 32 34 37 41 45 47 47 46 45 44 44 45 44 43
55 54 53 53 52 49 44 40 38 37 39 39 39 39 39 38 37 35 33 34 35 36 37 37 38 39 42 48 47 39 21 358 352 353 359 15 35 40 19 13 8 8 30 42 54 64 73 73 84 93 87 40 12 7 10 10 12 18 27 37 38 33 22 17 15 16 21 29 31 28 20 20 20 21 24 32 38 43 45 45 44 43 43 44 46 48
57 55 52 52 52 50 46 41 37 36 35 36 38 41 45 45 44 42 38 38 40 43 45 44 43 43 44 50 50 43 19 352 349 353 359 7 27 53 47 14 4 7 31 41 58 74 86 72 67 67 70 60 33 360 345 345 358 16 29 34 35 33 25 20 17 16 19 29 32 29 21 19 17 16 17 25 30 35 39 40 40 39 39 41 44 46
56 55 51 50 49 48 45 41 37 33 30 28 31 38 49 54 55 52 48 43 43 46 50 49 48 47 45 50 51 45 22 359 356 358 3 4 19 47 61 21 6 11 33 41 55 78 96 84 65 52 53 53 45 9 331 336 353 14 24 28 31 31 25 20 18 19 21 28 31 30 25 22 20 20 20 23 25 28 31 33 33 33 33 35 39 43
56 53 49 46 45 43 41 37 32 27 22 17 17 27 49 67 71 69 65 57 53 53 55 52 50 46 43 45 45 40 28 15 8 7 8 8 14 31 50 28 13 12 22 29 45 71 93 91 81 65 50 39 29 2 321 338 355 5 4 14 29 34 29 22 21 22 23 25 26 28 26 23 22 22 23 22 23 24 26 25 26 26 25 26 31 37
62 56 48 43 40 37 35 31 24 16 9 4 2 12 54 82 86 85 83 79 73 69 66 63 57 50 43 41 39 37 31 23 18 14 14 12 13 19 32 27 15 8 8 15 29 50 72 82 90 95 95 63 10 341 330 346 354 351 341 2 21 28 28 24 23 24 26 24 24 25 23 19 21 23 25 23 23 24 24 21 21 22 21 19 23 28
70 64 54 44 37 30 27 18 8 360 360 5 9 18 41 72 85 88 91 93 93 90 85 77 69 60 52 47 43 37 32 27 23 20 17 15 14 15 22 22 15 10 11 22 33 46 58 66 74 85 103 111 101 10 343 344 342 350 13 24 25 23 21 22 22 22 26 27 27 25 20 15 18 23 27 26 26 24 21 19 18 21 22 23 22 21
72 67 59 48 38 31 25 11 4 6 18 24 28 28 29 34 48 67 78 81 88 94 96 88 77 66 57 50 44 39 35 31 28 26 22 17 14 13 16 15 10 8 17 33 40 46 56 61 63 66 76 97 99 87 37 348 351 12 44 57 60 34 25 26 22 19 22 27 28 25 21 16 17 20 26 27 25 21 17 17 18 21 24 24 25 24
72 69 64 58 45 33 22 17 22 29 35 38 39 37 31 26 28 36 46 44 37 36 54 86 81 72 63 53 45 39 34 32 30 29 25 19 16 15 14 13 9 7 17 37 44 45 47 54 59 64 74 94 93 79 46 359 359 16 45 64 82 54 40 27 19 13 20 23 23 22 22 16 12 13 20 26 23 18 17 19 24 27 28 24 22 23
82 83 86 87 81 63 48 43 40 39 37 36 35 32 25 21 23 29 38 40 29 18 22 76 91 88 78 66 53 43 35 31 30 29 27 22 19 16 15 14 12 11 14 33 43 45 41 44 47 50 51 87 93 87 75 25 6 9 19 31 44 49 41 9 357 357 10 17 19 19 17 8 358 355 10 25 27 24 21 25 28 30 30 28 25 23
107 114 123 123 111 83 67 59 55 51 44 39 33 26 16 12 15 21 28 27 24 23 33 68 92 93 84 74 63 54 43 37 33 31 29 27 25 22 19 18 15 15 16 27 34 36 34 33 27 18 10 44 65 73 76 60 32 13 9 27 50 70 81 12 339 344 360 8 12 11 5 352 343 346 11 28 31 28 27 27 26 26 26 25 26 25
113 113 110 98 84 75 71 73 74 71 63 52 41 29 17 10 10 14 21 19 16 14 12 29 65 76 66 57 51 48 45 40 35 32 29 28 28 27 25 23 21 19 21 26 31 36 42 32 13 356 358 37 54 61 63 61 54 41 30 40 56 71 86 54 9 9 14 9 5 359 350 341 344 2 28 34 34 33 31 31 30 28 24 24 24 24
84 79 75 74 74 73 73 80 88 91 86 74 59 42 26 17 14 14 15 16 13 8 359 11 34 55 55 38 27 27 36 39 37 34 29 27 25 26 28 30 30 29 27 28 32 38 48 46 27 8 18 40 45 46 48 53 56 53 40 42 50 55 47 27 19 19 19 15 4 351 340 343 1 28 43 40 38 36 35 35 33 30 26 24 24 23
74 72 70 71 72 68 59 59 73 90 98 92 79 59 39 26 21 18 13 10 10 11 11 23 39 53 58 50 46 46 49 47 40 33 25 19 18 20 27 36 42 44 41 39 40 44 49 51 49 49 55 57 48 38 28 32 40 48 51 46 49 50 45 24 8 2 8 14 3 350 345 359 17 32 39 40 40 39 37 36 34 31 27 25 23 21
77 77 74 72 70 66 57 49 52 68 89 97 93 79 53 37 32 28 16 6 6 12 21 31 42 49 48 48 57 71 77 68 55 40 23 8 359 353 354 8 32 46 49 44 43 43 44 47 51 57 68 77 74 57 30 21 22 30 50 62 64 60 54 26 359 347 355 2 357 353 1 23 32 34 31 40 44 43 39 36 33 31 27 25 24 22
69 72 71 72 72 71 66 59 57 60 72 89 95 91 74 53 44 38 24 11 12 20 29 34 39 42 41 38 41 51 67 69 62 47 25 2 348 338 333 336 345 13 31 28 23 20 20 29 36 45 61 78 84 80 52 22 11 12 29 48 58 58 51 18 352 344 349 351 349 351 7 33 53 66 59 58 56 51 44 39 35 31 26 25 24 24
58 61 62 65 66 67 67 66 66 67 72 82 93 98 94 74 51 34 21 19 24 33 41 41 41 40 40 38 36 39 48 55 54 42 25 360 346 339 338 335 336 359 48 30 18 11 8 11 15 23 37 53 65 74 70 32 12 10 22 30 41 50 51 12 345 338 345 347 347 350 5 16 27 48 65 70 66 58 49 43 37 31 25 24 24 24
56 56 55 55 56 56 57 56 58 62 70 81 93 100 105 98 87 60 36 31 33 42 57 60 56 50 44 43 44 47 53 59 57 46 25 356 344 339 341 340 342 356 36 37 28 24 28 27 11 11 21 31 40 51 75 55 35 28 29 18 15 21 37 357 334 329 335 339 345 359 18 26 30 37 51 67 68 60 50 44 38 32 25 23 24 25